Weather History for Dubuque, IA

Change the Weather History Date:

Saturday, February 22, 2014

  Actual Average Record
Temperature  
Mean Temperature 18 °F 26 °F  
Max Temperature 23 °F 34 °F 61 °F (1984)
Min Temperature 12 °F 18 °F -16 °F (1936)
Degree Days  
Heating Degree Days 47 39  
Month to date heating degree days 1185 930  
Since 1 July heating degree days 6027 5167  
Cooling Degree Days 0 0  
Month to date cooling degree days 0 0  
Year to date cooling degree days 0 0  
Moisture  
Dew Point 9 °F    
Average Humidity 71    
Maximum Humidity 80    
Minimum Humidity 62    
Precipitation  
Precipitation 0.00 in 0.06 in 1.34 in (1981)
Month to date precipitation 1.42 1.08  
Year to date precipitation 2.37 2.25  
Snow  
Snow 0.00 in 0.30 in - ()
Month to date snowfall 13.9 7.4  
Since 1 July snowfall 50.3 32.0  
Snow Depth 4.00 in    
Sea Level Pressure  
Sea Level Pressure 30.04 in    
Wind  
Wind Speed 11 mph (WNW)    
Max Wind Speed 17 mph    
Max Gust Speed 24 mph    
Visibility 10 miles    
Events      
T = Trace of Precipitation, MM = Missing Value Source: NWS Daily Summary

Daily Weather History Graph

Daily Weather History Graph

Search for Another Location

Airport:

Trip Planner

Search our weather history database for the weather conditions in past years. The results will help you decide how hot, cold, wet, or windy it might be!

Date:

Astronomy

Feb. 22, 2014 Rise Set
Actual Time 6:49 AM CST 5:44 PM CST
Civil Twilight 6:20 AM CST 6:12 PM CST
Nautical Twilight 5:48 AM CST 6:45 PM CST
Astronomical Twilight 5:15 AM CST 7:17 PM CST
Moon 12:47 AM CST (2/22) 10:51 AM CST (2/22)
Length of Visible Light 11h 51m
Length of Day
10h 54m
Waning Gibbous, 50% of the Moon is Illuminated
Feb 22
Waning Gibbous
Mar 1
New
Mar 8
First Quarter
Mar 16
Full
Mar 23
Last Quarter

Hourly Weather History & Observations

Time (CST) Temp. Windchill Dew Point Humidity Pressure Visibility Wind Dir Wind Speed Gust Speed Precip Events Conditions
12:53 AM 16.0 °F 6.3 °F 9.0 °F 74% 29.89 in 10.0 mi West 6.9 mph - N/A   Clear
1:53 AM 15.1 °F 3.3 °F 9.0 °F 77% 29.90 in 10.0 mi West 9.2 mph - N/A   Clear
2:53 AM 16.0 °F 4.4 °F 8.1 °F 71% 29.91 in 10.0 mi WNW 9.2 mph - N/A   Clear
3:53 AM 14.0 °F 2.9 °F 8.1 °F 77% 29.92 in 10.0 mi WNW 8.1 mph - N/A   Clear
4:53 AM 15.1 °F 3.3 °F 8.1 °F 74% 29.94 in 10.0 mi NW 9.2 mph - N/A   Overcast
5:53 AM 15.1 °F 1.1 °F 8.1 °F 74% 29.95 in 10.0 mi NNW 12.7 mph - N/A   Overcast
6:53 AM 16.0 °F 7.4 °F 8.1 °F 71% 30.00 in 10.0 mi West 5.8 mph - N/A   Overcast
7:53 AM 16.0 °F 5.3 °F 8.1 °F 71% 30.01 in 10.0 mi WNW 8.1 mph - N/A   Overcast
8:53 AM 17.1 °F 5.8 °F 8.1 °F 68% 30.03 in 10.0 mi WNW 9.2 mph - N/A   Scattered Clouds
9:53 AM 17.1 °F 7.6 °F 9.0 °F 71% 30.06 in 10.0 mi West 6.9 mph - N/A   Overcast
10:53 AM 19.9 °F 9.3 °F 8.1 °F 60% 30.06 in 10.0 mi WNW 9.2 mph - N/A   Clear
11:53 AM 21.0 °F 9.9 °F 12.0 °F 68% 30.06 in 10.0 mi WSW 10.4 mph - N/A   Clear
12:53 PM 21.9 °F 9.8 °F 12.0 °F 66% 30.05 in 10.0 mi West 12.7 mph - N/A   Clear
1:53 PM 23.0 °F 11.7 °F 12.9 °F 65% 30.03 in 10.0 mi West 11.5 mph - N/A   Clear
2:53 PM 23.0 °F 12.4 °F 12.0 °F 63% 30.04 in 10.0 mi West 10.4 mph - N/A   Clear
3:53 PM 21.9 °F 9.2 °F 12.0 °F 66% 30.05 in 10.0 mi West 13.8 mph - N/A   Clear
4:53 PM 19.9 °F 7.9 °F 10.0 °F 65% 30.06 in 10.0 mi WNW 11.5 mph - N/A   Clear
5:53 PM 18.0 °F 4.8 °F 10.0 °F 71% 30.08 in 10.0 mi West 12.7 mph - N/A   Clear
6:53 PM 17.1 °F 4.3 °F 9.0 °F 71% 30.11 in 10.0 mi WNW 11.5 mph - N/A   Clear
7:53 PM 15.1 °F 0.5 °F 8.1 °F 74% 30.13 in 10.0 mi WNW 13.8 mph - N/A   Clear
8:53 PM 14.0 °F -0.2 °F 8.1 °F 77% 30.16 in 10.0 mi NW 12.7 mph - N/A   Clear
9:53 PM 12.0 °F -2.0 °F 7.0 °F 80% 30.17 in 10.0 mi WNW 11.5 mph - N/A   Clear
10:53 PM 12.0 °F -2.7 °F 5.0 °F 73% 30.15 in 10.0 mi NNW 12.7 mph - N/A   Clear
11:53 PM 12.9 °F -3.9 °F 5.0 °F 71% 30.16 in 10.0 mi NW 17.3 mph - N/A   Clear